Regional Weather Roundup
Issued by NWS Austin/San Antonio, TX

Home | Current Version | Previous Version | Text Only | Print | Product List | Glossary On
Versions: 1 2 3 4 5 6 7 8 9 10 11 12 13 14 15 16 17 18 19 20 21 22 23 24 25 26 27 28 29 30 31 32 33 34 35 36 37 38 39 40 41 42 43 44 45 46 47 48 49 50
071
ASUS44 KEWX 132010
RWREWX
SOUTH TEXAS REGIONAL WEATHER ROUNDUP
NATIONAL WEATHER SERVICE AUSTIN/SAN ANTONIO TX
300 PM CDT SUN OCT 13 2019

NOTE: "FAIR" INDICATED FEW OR NO CLOUDS BELOW 12,000 FEET WITH NO
SIGNIFICANT WEATHER AND/OR OBSTRUCTIONS TO VISIBILITY.

* - THESE STATIONS ARE NOT NWS OR FAA STATIONS...AND ARE NOT SUBJECT
    TO NWS AND FAA QUALITY CONTROL.

TXZ171-172-183>190-132100-
TEXAS HILL COUNTRY AND EDWARDS PLATEAU

CITY           SKY/WX    TMP DP  RH WIND       PRES   REMARKS
JUNCTION       SUNNY     76  43  30 S13       30.00F
*LLANO         MOSUNNY   77  45  31 SW3       30.01F
BURNET         SUNNY     73  46  38 VRB5      30.00F
*HORSESHOE BAY PTSUNNY   79  52  38 CALM      29.98F
*KERRVILLE     CLOUDY    76  52  42 SW9       30.01S
*FREDERICKSBRG LGT RAIN  75  49  40 SW7       30.00F
*ROCKSPRINGS   CLOUDY    70  41  35 VRB6      30.07F
*BOERNE        CLOUDY    75  45  33 CALM      30.01F
*CASTROVILLE   PTSUNNY   79  43  27 SW3       30.00F
HONDO          CLOUDY    77  44  30 S6        29.98F
*UVALDE        MOSUNNY   77  43  29 SE3       30.00F
DEL RIO        SUNNY     74  39  28 SE6       29.98F
LAUGHLIN AFB   PTSUNNY   72  38  29 CALM      29.98F
SPOFFORD       MOSUNNY   76  40  27 S5        29.92F
*EAGLE PASS    SUNNY     79  41  25 VRB5      29.97F
CARRIZO SPRGS  CLOUDY    79  50  36 CALM      29.96F
*FAITH RANCH   CLOUDY    81  54  39 SE8G15    29.96F
$$

TXZ173-191>194-202-209-217>225-228-132100-
CENTRAL AND SOUTH CENTRAL TEXAS

CITY           SKY/WX    TMP DP  RH WIND       PRES   REMARKS
GEORGETOWN     MOSUNNY   76  50  40 SE5       30.00F
AUSTIN/BERGSTM PTSUNNY   78  49  35 S8        29.98F
AUSTIN/MABRY   SUNNY     81  46  29 SE8       29.99F
*AUSTIN/EXEC   SUNNY     77  46  33 S7        29.99F
*LAGO VISTA    SUNNY     76  49  39 SE7       29.99F
SAN MARCOS     MOSUNNY   79  47  32 S6        29.99F
NEW BRAUNFELS  MOSUNNY   76  48  37 S7        29.98F
RANDOLPH AFB   PTSUNNY   76  50  39 S5        29.99F
SEGUIN         CLOUDY    75  47  36 CALM      30.02F
KELLY FIELD    PTSUNNY   78  50  37 SW3       29.97F
SAN ANTONIO    CLOUDY    76  46  34 VRB5      29.99F
STINSON FIELD  CLOUDY    76  44  32 SW5       29.97F
PLEASANTON     CLOUDY    78  50  38 CALM      29.98F
*LA GRANGE     PTSUNNY   79  54  42 S3        29.97F
*GIDDINGS      MOSUNNY   80  50  35 CALM      30.00F
*GONZALES      PTSUNNY   79  57  46 CALM      29.97F
$$

TXZ163>164-176>182-195>201-210>213-226-227-235-132100-
SOUTHEAST TEXAS

CITY           SKY/WX    TMP DP  RH WIND       PRES   REMARKS
COLLEGE STN    CLOUDY    76  47  35 S7        29.99F
*BRYAN         PTSUNNY   77  49  37 SE5       30.01F
*CALDWELL      MOSUNNY   77  49  36 SE7       29.99F
*CROCKETT      MOSUNNY   73  48  40 CALM      30.03F
*BRENHAM       PTSUNNY   78  50  37 S6        29.99F
HUNTSVILLE     PTSUNNY   76  46  34 S5        30.00F
CONROE         CLOUDY    76  56  49 VRB3      30.00F
HOUSTON BUSH   MOSUNNY   80  59  48 W3        29.98F
HOUSTON HOBBY  PTSUNNY   82  61  48 CALM      29.97F
*HOUSTON SW AP FAIR      81  65  58 CALM      29.98F
PEARLAND       FAIR      82  63  52 CALM      29.98F
HOUSTON HOOKS  PTSUNNY   77  57  50 VRB3      29.98F
ELLINGTON FLD  MOSUNNY   82  57  42 NW3       29.97F
SUGAR LAND     FAIR      81  64  56 S5        29.97F
*HOUSTON EXEC  CLOUDY    79  63  57 CALM      29.99F
*CLEVELAND MUN PTSUNNY   74  52  45 CALM      30.01F
*WHARTON       MOSUNNY   80  61  51 CALM      29.97F
*COLUMBUS      FAIR      80  52  37 E3        29.99F
*EAGLE LAKE    SUNNY     81  63  53 CALM      29.97
$$

TXZ214>216-236>238-132100-
THE UPPER TEXAS COAST

CITY           SKY/WX    TMP DP  RH WIND       PRES   REMARKS
*ORANGE        FAIR      81  65  59 N5        30.01F
PORT ARTHUR    PTSUNNY   82  63  52 NW7       29.98F
GALVESTON      FAIR      79  61  53 N12       29.99F
ANGLETON       PTSUNNY   82  66  58 E3        29.97F
*BAY CITY      SUNNY     85  69  60 E3        29.96F
PALACIOS       PTSUNNY   85  66  53 E8        29.95F
$$

TXZ229>234-239>247-132100-
TEXAS COASTAL BEND AND RIO GRANDE PLAINS

CITY           SKY/WX    TMP DP  RH WIND       PRES   REMARKS
VICTORIA       CLOUDY    83  62  49 N8        29.96F
*BEEVILLE      MOSUNNY   85  60  43 E6        29.95F
ROCKPORT       CLOUDY    83  63  50 E10       29.94F
*PORT ARANSAS  CLOUDY    77  68  72 NE16      29.95F
*PORT LAVACA   PTSUNNY   84  66  54 NE10      29.95F
*INGLESIDE     PTSUNNY   81  67  61 E13       29.94F
CORPUS CHRISTI CLOUDY    80  65  59 NE12      29.94F
CORPUS NAS     CLOUDY    75  67  76 NE13      29.94F
*ROBSTOWN      CLOUDY    78  64  61 NE8       29.96F
ALICE          CLOUDY    80  59  48 NE9       29.96F
KINGSVILLE NAS CLOUDY    81  64  56 NE10      29.95F
COTULLA        CLOUDY    78  52  40 CALM      29.97F
LAREDO         CLOUDY    78  59  51 VRB6      29.96F
$$

TXZ248>255-132100-
DEEP SOUTH TEXAS

CITY           SKY/WX    TMP DP  RH WIND       PRES   REMARKS
BROWNSVILLE    FAIR      85  66  53 NW7       29.90F
PORT ISABEL    PTSUNNY   84  69  60 NW13      29.90F
HARLINGEN      PTSUNNY   81  63  54 N12       29.92F
*HEBBRONVILLE  CLOUDY    73  56  53 CALM      29.98F
MCALLEN        CLOUDY    76  61  59 N10       29.94F
*WESLACO       SUNNY     74  61  62 N9        29.94
FALFURRIAS     CLOUDY    77  58  51 NE8       29.95F
EDINBURG       CLOUDY    70  61  73 N8        29.95F
*ZAPATA        CLOUDY    80  55  42 NE7       29.96F
$$

TXZ213>215-236>238-242>244-246-247-251-254-255-132100-
CMAN STATIONS

STATION/POSITION TIME  TEMP    WIND        PRES    WAVE
                       AIR SEA DIR/SP/G            HT/PER
                 (UTC) (F)     (DEG/KT/KT) (MB)    (FT/S)
SABINE PASS      1930   75 76  340/  4/  6 1017.5
NORTH JETTY/GLS  1924   73 73   50/ 10/ 11 1014.3
EAGLE POINT      1930   71 71   50/  8/  9 1014.6
MORGANS POINT    1930   78 80   CALM  /  1 1015.2
PORT O`CONNOR    1930   74 71   50/  9/ 10 1014.1
PORT ARANSAS     2000   75 78   30/ 16/ 18 1013.4
MALAQUITE BEACH  1930      78   10/ 18/ 21 1013.6
BAFFIN BAY       1930   71 72  350/ 14/ 18 1014.2
PORT ISABEL      1930   74 74  350/ 13/ 17 1013.1
$$




USA.gov is the U.S. government's official web portal to all federal, state and local government web resources and services.